(293489) = 2007 FS31

Discovered at Kitt Peak on 2007-03-20 by Spacewatch.

Orbit

Orbit type: Main Belt

Note: WebGL enabled browser required.

epoch2024-03-31.0
epoch JD2460400.5
perihelion date2019-01-23.84954
perihelion JD2458507.34954
argument of perihelion (°)11.03984
ascending node (°)200.61849
inclination (°)7.45144
eccentricity0.0162947
perihelion distance (AU)3.1842797
Tisserand w.r.t. Jupiter3.2
ΔV w.r.t. Earth (km/sec)11.2
semimajor axis (AU)3.2370260
mean anomaly (°)320.38333
mean daily motion (°/day)0.16923290
aphelion distance (AU)3.290
period (years)5.82
P-vector [x]-0.85176252
P-vector [y]-0.49003261
P-vector [z]-0.18538784
Q-vector [x]0.52193394
Q-vector [y]-0.82446829
Q-vector [z]-0.21871670
absolute magnitude15.93
phase slope0.15
uncertainty0
referenceE2024-GI3
observations used289
oppositions15
arc length (days)7500
first opposition used2003
last opposition used2024
residual rms (arc-secs)0.72
perturbers coarse indicatorM-v
perturbers precise indicator003Ek
first observation date used2003-09-30.0
last observation date used2024-04-12.0
computer nameMPCLINUX
JD of orbit computation2456465.477792
perihelion JD uncertainty (days)1.9896E-03
argument of perihelion uncertainty (°)3.3996E-04
ascending node uncertainty (°)3.9497E-05
inclination uncertainty (°)8.6940E-06
eccentricity uncertainty 7.2217E-08
perihelion distance uncertainty (AU)2.5551E-07
Minimum Orbit Intersection Distances (in AU)
for orbit epoch: 2460400.5, reference: E2024-GI3
Mercury2.73161
Venus2.46163
Earth2.17868
Mars1.54861
Jupiter1.66599
Saturn5.79673
Uranus15.2542
Neptune26.5331

Observations

273 total observations over interval: 2003 09 30.12076 – 2024 03 07.373247
These data are available for download (format description).

Date (UT) J2000 RA J2000 Dec Magn Location Ref
2003 09 30.12076 22 33 29.75 -02 45 01.2 21.6 V 691 – Steward Observatory, Kitt Peak-Spacewatch MPS 309471
2003 09 30.14693 22 33 29.01 -02 45 10.0 21.0 V 691 – Steward Observatory, Kitt Peak-Spacewatch MPS 309471
2003 09 30.17320 22 33 28.24 -02 45 18.7 21.6 V 691 – Steward Observatory, Kitt Peak-Spacewatch MPS 309471
2004 11 04.32086 03 55 06.65 +14 27 28.1 20.6 V 691 – Steward Observatory, Kitt Peak-Spacewatch MPS 309471
2004 11 04.35162 03 55 05.34 +14 27 19.8 20.6 V 691 – Steward Observatory, Kitt Peak-Spacewatch MPS 309471
2004 11 04.38493 03 55 03.90 +14 27 11.1 20.6 V 691 – Steward Observatory, Kitt Peak-Spacewatch MPS 309471
2007 03 20.36138 13 47 38.59 -11 20 40.6 20.8 V 691 – Steward Observatory, Kitt Peak-Spacewatch MPS 205635
2007 03 20.37911 13 47 38.07 -11 20 36.0 21.5 V 691 – Steward Observatory, Kitt Peak-Spacewatch MPS 205635
2007 03 20.39683 13 47 37.53 -11 20 30.9 21.4 V 691 – Steward Observatory, Kitt Peak-Spacewatch MPS 205635
2007 03 26.35416 13 44 33.21 -10 51 40.5 21.4 V 691 – Steward Observatory, Kitt Peak-Spacewatch MPS 205635
2007 03 26.37182 13 44 32.58 -10 51 35.4 21.1 V 691 – Steward Observatory, Kitt Peak-Spacewatch MPS 205635
2007 03 26.38949 13 44 31.93 -10 51 30.0 20.9 V 691 – Steward Observatory, Kitt Peak-Spacewatch MPS 205635
2007 04 07.36080 13 37 04.69 -09 44 43.2 20.4 V G96 – Mt. Lemmon Survey MPS 206293
2007 04 07.36588 13 37 04.44 -09 44 41.6 20.3 V G96 – Mt. Lemmon Survey MPS 206293
2007 04 07.37094 13 37 04.22 -09 44 39.7 20.1 V G96 – Mt. Lemmon Survey MPS 206293
2007 04 07.37590 13 37 04.00 -09 44 38.2 20.5 V G96 – Mt. Lemmon Survey MPS 206293
2007 04 11.24118 13 34 26.22 -09 21 25.8 21.2 V 691 – Steward Observatory, Kitt Peak-Spacewatch MPS 206293
2007 04 11.25876 13 34 25.47 -09 21 20.0 20.5 V 691 – Steward Observatory, Kitt Peak-Spacewatch MPS 206293
2007 04 11.27979 13 34 24.56 -09 21 12.1 20.6 V 691 – Steward Observatory, Kitt Peak-Spacewatch MPS 206293
2007 04 14.31012 13 32 18.70 -09 02 46.5 20.6 V G96 – Mt. Lemmon Survey MPS 206999
2007 04 14.31627 13 32 18.45 -09 02 44.2 20.5 V G96 – Mt. Lemmon Survey MPS 206999
2007 04 14.32380 13 32 18.09 -09 02 41.5 20.1 V G96 – Mt. Lemmon Survey MPS 206999
2007 04 14.32987 13 32 17.88 -09 02 39.3 20.2 V G96 – Mt. Lemmon Survey MPS 206999
2007 05 07.14778 13 17 45.94 -06 51 56.1 21.3 V 691 – Steward Observatory, Kitt Peak-Spacewatch MPS 209058
2007 05 07.16615 13 17 45.35 -06 51 51.0 21.1 V 691 – Steward Observatory, Kitt Peak-Spacewatch MPS 209058
2007 05 07.18452 13 17 44.74 -06 51 45.2 21.1 V 691 – Steward Observatory, Kitt Peak-Spacewatch MPS 209058
2009 08 16.37488 23 55 25.32 +05 12 46.0 20.7 V 691 – Steward Observatory, Kitt Peak-Spacewatch MPS 308691
2009 08 16.39249 23 55 24.92 +05 12 42.6 20.8 V 691 – Steward Observatory, Kitt Peak-Spacewatch MPS 308691
2009 08 16.41010 23 55 24.55 +05 12 39.8 20.9 V 691 – Steward Observatory, Kitt Peak-Spacewatch MPS 308691
2009 08 28.34218 23 49 53.00 +04 28 25.0 20.5 V 691 – Steward Observatory, Kitt Peak-Spacewatch MPS 308691
2009 08 28.35999 23 49 52.40 +04 28 19.7 20.7 V 691 – Steward Observatory, Kitt Peak-Spacewatch MPS 308691
2009 08 28.37777 23 49 51.77 +04 28 15.2 21.3 V 691 – Steward Observatory, Kitt Peak-Spacewatch MPS 308691
2009 09 17.29818 23 37 18.58 +02 38 50.7 20.2 V G96 – Mt. Lemmon Survey MPS 308691
2009 09 17.29893 23 37 18.51 +02 38 50.4 19.9 V G96 – Mt. Lemmon Survey MPS 308691
2009 09 17.30531 23 37 18.30 +02 38 48.2 20.1 V G96 – Mt. Lemmon Survey MPS 308691
2009 09 17.30607 23 37 18.22 +02 38 47.7 20.1 V G96 – Mt. Lemmon Survey MPS 308691
2009 09 17.31245 23 37 18.01 +02 38 45.7 20.2 V G96 – Mt. Lemmon Survey MPS 308691
2009 09 17.31321 23 37 17.94 +02 38 45.1 19.9 V G96 – Mt. Lemmon Survey MPS 308691
2009 09 17.31961 23 37 17.68 +02 38 42.9 20.4 V G96 – Mt. Lemmon Survey MPS 308691
2009 09 17.32036 23 37 17.61 +02 38 42.3 20.2 V G96 – Mt. Lemmon Survey MPS 308691
2010 11 08.40542 04 47 20.04 +15 11 37.3 20.3 V G96 – Mt. Lemmon Survey MPS 355468
2010 11 08.43655 04 47 18.88 +15 11 29.9 20.1 V G96 – Mt. Lemmon Survey MPS 355468
2010 11 08.44536 04 47 18.56 +15 11 28.7 20.0 V G96 – Mt. Lemmon Survey MPS 355468
2010 11 08.45419 04 47 18.24 +15 11 27.2 20.3 V G96 – Mt. Lemmon Survey MPS 355468
2010 12 08.31361 04 24 51.80 +13 34 18.1 21.4 V 703 – Catalina Sky Survey MPS 359076
2010 12 08.32150 04 24 51.40 +13 34 17.3 20.6 V 703 – Catalina Sky Survey MPS 359076
2010 12 08.32938 04 24 51.01 +13 34 15.6 20.9 V 703 – Catalina Sky Survey MPS 359076
2010 12 08.33723 04 24 50.61 +13 34 13.4 21.2 V 703 – Catalina Sky Survey MPS 359076
2012 01 25.41638 09 38 02.576 +04 20 09.77 21.1 w F51 – Pan-STARRS 1, Haleakala MPS 410061
2012 01 25.43065 09 38 02.000 +04 20 12.34 21.0 w F51 – Pan-STARRS 1, Haleakala MPS 410061
2012 01 25.44497 09 38 01.418 +04 20 14.82 21.1 w F51 – Pan-STARRS 1, Haleakala MPS 410061
2012 01 25.45933 09 38 00.840 +04 20 17.30 21.0 w F51 – Pan-STARRS 1, Haleakala MPS 410061
2012 02 14.36802 09 23 42.243 +05 40 15.34 19.1 w F51 – Pan-STARRS 1, Haleakala MPS 412913
2012 02 14.38220 09 23 41.547 +05 40 19.56 19.3 w F51 – Pan-STARRS 1, Haleakala MPS 412913
2012 02 14.39639 09 23 40.898 +05 40 23.61 19.2 w F51 – Pan-STARRS 1, Haleakala MPS 412913
2013 04 13.47956 14 32 48.554 -12 19 33.57 20.4 w F51 – Pan-STARRS 1, Haleakala MPS 464917
2013 04 13.49343 14 32 47.999 -12 19 29.21 20.4 w F51 – Pan-STARRS 1, Haleakala MPS 464917
2013 04 13.50732 14 32 47.451 -12 19 24.60 20.6 w F51 – Pan-STARRS 1, Haleakala MPS 464917
2013 05 09.41428 14 14 53.968 -09 57 46.20 20.5 w F51 – Pan-STARRS 1, Haleakala MPS 467413
2013 05 09.42825 14 14 53.398 -09 57 41.96 20.5 w F51 – Pan-STARRS 1, Haleakala MPS 467413
2013 05 09.44222 14 14 52.822 -09 57 37.71 20.4 w F51 – Pan-STARRS 1, Haleakala MPS 467413
2015 10 01.28942 00 26 58.83 +05 32 13.4 20.0 V G96 – Mt. Lemmon Survey MPS 630836
2015 10 01.29513 00 26 58.56 +05 32 11.3 20.6 V G96 – Mt. Lemmon Survey MPS 630836
2015 10 01.30085 00 26 58.31 +05 32 09.5 20.3 V G96 – Mt. Lemmon Survey MPS 630836
2015 10 01.30656 00 26 58.08 +05 32 07.0 20.3 V G96 – Mt. Lemmon Survey MPS 630836
2015 10 12.37270 00 19 39.193 +04 21 51.92 20.4 w F51 – Pan-STARRS 1, Haleakala MPS 635046
2015 10 12.40655 00 19 37.881 +04 21 39.32 20.6 w F51 – Pan-STARRS 1, Haleakala MPS 635046
2015 10 12.41898 00 19 37.381 +04 21 34.59 20.5 w F51 – Pan-STARRS 1, Haleakala MPS 635046
2015 10 13.36308 00 19 01.999 +04 15 42.09 20.5 w F51 – Pan-STARRS 1, Haleakala MPS 635046
2015 10 13.37519 00 19 01.526 +04 15 37.59 20.7 w F51 – Pan-STARRS 1, Haleakala MPS 635046
2015 10 13.38730 00 19 01.044 +04 15 33.07 20.6 w F51 – Pan-STARRS 1, Haleakala MPS 635046
2015 10 13.39945 00 19 00.583 +04 15 28.51 20.6 w F51 – Pan-STARRS 1, Haleakala MPS 635046
2015 11 01.28606 00 09 27.951 +02 31 32.94 20.9 w F51 – Pan-STARRS 1, Haleakala MPS 644803
2015 11 01.29903 00 09 27.657 +02 31 29.45 20.9 w F51 – Pan-STARRS 1, Haleakala MPS 644803
2015 11 01.31099 00 09 27.385 +02 31 26.04 21.1 w F51 – Pan-STARRS 1, Haleakala MPS 644803
2015 11 01.32294 00 09 27.108 +02 31 22.81 20.8 w F51 – Pan-STARRS 1, Haleakala MPS 644803
2015 11 02.31165 00 09 06.178 +02 26 55.63 21.1 w F51 – Pan-STARRS 1, Haleakala MPS 644803
2015 11 02.32337 00 09 05.918 +02 26 52.42 21.0 w F51 – Pan-STARRS 1, Haleakala MPS 644803
2015 11 02.33524 00 09 05.654 +02 26 49.28 20.9 w F51 – Pan-STARRS 1, Haleakala MPS 644803
2015 11 02.34703 00 09 05.388 +02 26 46.20 20.9 w F51 – Pan-STARRS 1, Haleakala MPS 644803
2015 11 07.25303 00 07 37.426 +02 06 30.36 21.0 w F51 – Pan-STARRS 1, Haleakala MPS 649886
2015 11 07.26590 00 07 37.217 +02 06 27.39 21.0 w F51 – Pan-STARRS 1, Haleakala MPS 649886
2015 11 07.27870 00 07 36.994 +02 06 24.51 21.0 w F51 – Pan-STARRS 1, Haleakala MPS 649886
2015 11 07.29157 00 07 36.767 +02 06 21.58 21.1 w F51 – Pan-STARRS 1, Haleakala MPS 649886
2015 11 08.25098 00 07 22.791 +02 02 46.40 21.2 w F51 – Pan-STARRS 1, Haleakala MPS 649886
2015 11 08.27518 00 07 22.416 +02 02 40.97 21.1 w F51 – Pan-STARRS 1, Haleakala MPS 649886
2015 11 08.28729 00 07 22.233 +02 02 38.14 21.0 w F51 – Pan-STARRS 1, Haleakala MPS 649886
2015 12 03.12030 00 07 34.42 +01 14 46.1 21.6 V G96 – Mt. Lemmon Survey MPS 656746
